Date String (YYYY-MM-DD hh:mm:ss) UTC,Instrument flags,Ambient pressure (hPa),Sample flow (lpm),Bypass flow (lpm),Sample temperature (°C),Ambient temperature (°C),ASC tube jacket temperature (°C),LED temperature (°C),Box temperature (°C),Sample RH (%),Span deviation,Mass concentration (μg/m³),Mass concentration (μg/m³),Mass concentration (μg/m³)
DateTimeUTC,F1_M11,P_M11,Q1_M11,Q2_M11,T1_M11,T2_M11,T3_M11,T4_M11,T5_M11,U1_M11,ZSPAN_M11,X2_M11,X0_M11,X1_M11
2021-08-22 22:00:00,,0824.2,4.99,0.00,29.3,28.3,00.0,38.2,31.2,16.2,0001.8,0010.77,0015.57,0010.46
2021-08-22 22:01:00,,0824.1,5.00,0.00,29.3,27.4,00.0,38.2,30.9,15.4,0001.2,0010.86,0015.66,0010.54
2021-08-22 22:02:00,,0824.1,4.99,0.00,29.1,25.8,00.0,38.2,30.4,15.4,0001.1,0010.97,0015.81,0010.64
2021-08-22 22:03:00,,0824.1,5.00,0.00,29.0,25.8,00.0,38.2,30.4,15.8,0001.4,0011.04,0015.82,0010.73
2021-08-22 22:04:00,,0824.1,5.00,0.00,29.0,26.3,00.0,38.2,30.5,15.4,0001.5,0011.16,0015.97,0010.86
2021-08-22 22:05:00,,0824.1,5.01,0.00,29.0,26.7,00.0,38.1,30.6,16.5,0001.9,0011.27,0016.15,0010.96
2021-08-22 22:06:00,,0824.2,4.98,0.00,29.0,27.1,00.0,38.1,30.8,16.1,0001.9,0011.38,0015.92,0011.07
2021-08-22 22:07:00,,0824.1,4.99,0.00,29.1,27.5,00.0,38.1,30.9,15.3,0002.0,0011.53,0015.71,0011.17
2021-08-22 22:08:00,,0824.1,5.01,0.00,29.1,27.9,00.0,38.1,31.0,15.4,0001.9,0011.61,0015.45,0011.25
2021-08-22 22:09:00,,0824.1,5.00,0.00,29.2,28.2,00.0,38.2,31.1,15.5,0002.0,0011.66,0015.13,0011.31
2021-08-22 22:10:00,,0824.1,5.00,0.00,29.3,28.2,00.0,38.2,31.1,15.8,0001.7,0011.74,0015.21,0011.40
2021-08-22 22:11:00,,0824.1,5.01,0.00,29.2,26.7,00.0,38.2,30.7,15.9,0001.3,0011.86,0015.42,0011.50
2021-08-22 22:12:00,,0824.1,5.01,0.00,29.0,25.7,00.0,38.2,30.4,14.6,0001.7,0011.97,0015.73,0011.59
2021-08-22 22:13:00,,0824.1,5.00,0.00,29.0,26.1,00.0,38.2,30.5,16.1,0001.8,0012.04,0015.84,0011.65
2021-08-22 22:14:00,,0824.1,4.99,0.00,29.0,26.5,00.0,38.1,30.6,15.0,0001.6,0012.14,0015.99,0011.72
2021-08-22 22:15:00,,0824.1,5.00,0.00,29.0,26.9,00.0,38.1,30.7,16.9,0001.4,0012.13,0015.95,0011.72
2021-08-22 22:16:00,,0824.1,4.99,0.00,29.0,27.2,00.0,38.1,30.8,16.4,0001.1,0012.10,0015.81,0011.71
2021-08-22 22:17:00,,0824.0,4.99,0.00,29.1,27.6,00.0,38.1,30.9,16.9,0001.1,0012.10,0015.78,0011.71
2021-08-22 22:18:00,,0824.0,5.00,0.00,29.2,28.0,00.0,38.1,31.0,15.9,0001.2,0012.05,0016.16,0011.69
2021-08-22 22:19:00,,0824.0,5.01,0.00,29.2,28.2,00.0,38.2,31.2,16.0,0001.3,0012.04,0016.69,0011.67
2021-08-22 22:20:00,,0824.1,5.01,0.00,29.3,28.5,00.0,38.2,31.3,15.8,0001.2,0012.11,0017.03,0011.69
2021-08-22 22:21:00,,0824.1,4.99,0.00,29.3,28.0,00.0,38.2,31.1,14.5,0001.0,0012.20,0017.15,0011.80
2021-08-22 22:22:00,,0824.1,5.00,0.00,29.2,26.3,00.0,38.2,30.6,14.6,0001.1,0012.26,0017.95,0011.87
2021-08-22 22:23:00,,0824.1,5.01,0.00,29.1,25.9,00.0,38.2,30.4,14.1,0000.9,0012.35,0017.87,0011.97
2021-08-22 22:24:00,,0824.1,4.98,0.00,29.0,26.3,00.0,38.2,30.6,14.7,0000.8,0012.48,0018.03,0012.09
2021-08-22 22:25:00,,0824.0,5.00,0.00,29.0,26.7,00.0,38.1,30.7,15.2,0000.5,0012.57,0018.41,0012.16
2021-08-22 22:26:00,,0824.1,4.99,0.00,29.1,27.1,00.0,38.1,30.8,15.7,0000.3,0012.57,0018.65,0012.16
2021-08-22 22:27:00,,0824.1,5.00,0.00,29.1,27.5,00.0,38.1,30.9,16.2,0000.5,0012.57,0018.67,0012.17
2021-08-22 22:28:00,,0824.1,5.00,0.00,29.2,27.8,00.0,38.2,31.0,15.5,0000.6,0012.58,0018.74,0012.16
2021-08-22 22:29:00,,0824.1,4.99,0.00,29.2,28.1,00.0,38.2,31.2,15.1,0000.6,0012.67,0018.76,0012.22
2021-08-22 22:30:00,,0824.0,4.99,0.00,29.3,28.4,00.0,38.2,31.2,14.3,0000.4,0012.83,0018.76,0012.40
2021-08-22 22:31:00,,0824.0,5.01,0.00,29.3,27.2,00.0,38.2,30.9,14.9,0000.6,0013.00,0018.85,0012.57
2021-08-22 22:32:00,,0824.1,5.00,0.00,29.1,25.8,00.0,38.2,30.5,15.4,0000.4,0013.09,0019.20,0012.63
2021-08-22 22:33:00,,0824.0,5.01,0.00,29.0,25.9,00.0,38.2,30.5,14.6,0000.5,0013.16,0018.68,0012.67
2021-08-22 22:34:00,,0824.1,5.00,0.00,29.0,26.4,00.0,38.1,30.6,15.1,0000.5,0013.11,0018.60,0012.62
2021-08-22 22:35:00,,0824.1,5.00,0.00,29.0,26.8,00.0,38.1,30.7,15.1,0000.5,0013.01,0018.50,0012.55
2021-08-22 22:36:00,,0824.1,5.01,0.00,29.1,27.2,00.0,38.1,30.8,15.0,0001.0,0012.88,0018.10,0012.41
2021-08-22 22:37:00,,0824.1,5.00,0.00,29.1,27.6,00.0,38.1,31.0,15.3,0001.3,0012.87,0017.94,0012.36
2021-08-22 22:38:00,,0824.1,5.00,0.00,29.2,27.9,00.0,38.1,31.1,15.0,0001.2,0012.83,0017.88,0012.32
2021-08-22 22:39:00,,0824.1,5.00,0.00,29.2,28.2,00.0,38.2,31.2,14.7,0001.2,0012.82,0017.96,0012.32
2021-08-22 22:40:00,,0824.1,5.00,0.00,29.3,28.5,00.0,38.2,31.3,14.9,0000.9,0012.81,0017.89,0012.29
2021-08-22 22:41:00,,0824.1,5.00,0.00,29.3,27.6,00.0,38.2,31.0,15.4,0001.3,0012.67,0017.57,0012.14
2021-08-22 22:42:00,,0824.1,4.99,0.00,29.2,26.0,00.0,38.2,30.6,15.3,0001.5,0012.52,0017.33,0011.99
2021-08-22 22:43:00,,0824.0,5.00,0.00,29.1,26.0,00.0,38.2,30.5,15.6,0002.0,0012.42,0017.03,0011.91
2021-08-22 22:44:00,,0824.0,5.00,0.00,29.0,26.4,00.0,38.2,30.7,16.4,0002.0,0012.39,0016.90,0011.88
2021-08-22 22:45:00,,0824.1,5.01,0.00,29.0,26.8,00.0,38.2,30.7,15.7,0002.0,0012.40,0016.89,0011.92
2021-08-22 22:46:00,,0824.1,5.00,0.00,29.1,27.2,00.0,38.1,30.8,15.2,0002.2,0012.46,0016.94,0011.99
2021-08-22 22:47:00,,0824.1,5.00,0.00,29.1,27.6,00.0,38.2,31.0,15.9,0001.9,0012.59,0017.12,0012.14
2021-08-22 22:48:00,,0824.0,5.01,0.00,29.2,27.9,00.0,38.2,31.1,14.3,0001.7,0012.71,0017.21,0012.28
2021-08-22 22:49:00,,0824.0,5.01,0.00,29.3,28.2,00.0,38.2,31.2,13.7,0001.4,0012.88,0017.44,0012.43
2021-08-22 22:50:00,,0824.1,4.99,0.00,29.3,28.2,00.0,38.2,31.2,14.3,0001.2,0012.98,0017.53,0012.54
2021-08-22 22:51:00,,0824.1,4.99,0.00,29.3,26.7,00.0,38.2,30.7,14.5,0001.3,0013.06,0017.57,0012.64
2021-08-22 22:52:00,,0824.1,5.00,0.00,29.1,25.6,00.0,38.2,30.4,15.1,0001.0,0013.20,0017.97,0012.76
2021-08-22 22:53:00,,0824.1,5.00,0.00,29.0,26.0,00.0,38.2,30.5,14.6,0000.8,0013.33,0018.20,0012.89
2021-08-22 22:54:00,,0824.1,5.00,0.00,29.0,26.5,00.0,38.1,30.6,14.0,0000.5,0013.50,0018.43,0013.04
2021-08-22 22:55:00,,0824.0,4.99,0.00,29.0,27.0,00.0,38.1,30.8,14.9,0000.6,0013.61,0018.63,0013.15
2021-08-22 22:56:00,,0824.0,5.00,0.00,29.1,27.4,00.0,38.1,30.9,13.9,0000.6,0013.71,0018.78,0013.24
2021-08-22 22:57:00,,0824.1,5.01,0.00,29.1,27.7,00.0,38.1,31.0,14.3,0000.6,0013.82,0018.99,0013.31
2021-08-22 22:58:00,,0824.0,5.00,0.00,29.2,28.0,00.0,38.2,31.1,14.1,0000.6,0013.89,0019.01,0013.40
2021-08-22 22:59:00,,0824.0,5.02,0.00,29.3,28.1,00.0,38.2,31.1,14.1,0000.9,0014.00,0019.19,0013.50
